[[{"header":{"parameterUnit":"m.s-1","parameterCategory":1,"la1":30.2991,"la2":30.254,"lo1":-89.0895,"lo2":-89.0444,"dy":0.0017,"dx":0.0017,"nx":28,"ny":28,"refTime":"2023-07-21T09:00:00:Z","depth":0,"parameterNumber":2,"parameterNumberName":"U-component_of_WINDS"},"data":[0,0,0,0,0,0,0,0,0,0,0,0,0,0,0,0,0,0,0,0,0,0,0,0,0,0,0,0,0,0,0,0,0,0,0,0,0,0,0,0,0,0,0,0,0,0,0,0,0,0,0,0,0,0,0,0,0,0,1.4813,1.4814,0,1.4939,1.494,1.4942,1.5152,1.5155,1.5159,1.5163,1.5284,1.5284,1.5283,0,0,0,0,0,0,0,0,0,0,0,0,0,1.4745,1.4745,1.4812,1.4814,1.4816,1.4939,1.494,1.4942,1.5151,1.5156,1.516,1.5165,1.5284,1.5284,1.5283,0,0,0,0,0,0,0,0,0,0,0,0,0,1.4813,1.4745,1.4812,1.4935,1.4947,1.4938,1.494,1.4943,1.515,1.5156,1.5162,1.5167,1.5284,1.5284,1.5283,1.5162,0,0,1.5281,1.5281,0,0,0,0,0,0,0,0,1.4809,1.4815,1.4915,1.4926,1.494,1.5036,1.4961,1.5016,1.5148,1.5072,1.5163,1.517,1.5196,1.5203,1.5214,1.5168,1.5173,1.5281,1.5281,1.5281,1.528,0,0,0,0,0,0,0,1.4804,1.4811,1.4862,1.4916,1.4932,1.4981,1.4997,1.4973,1.51,1.508,1.5095,1.5108,1.5204,1.5214,1.5218,1.5175,1.5281,1.5281,1.528,1.528,1.5039,1.5033,0,0,0,0,0,0,1.4782,1.4805,1.4858,1.4866,1.4888,1.4978,1.4996,1.4999,1.5101,1.5122,1.5103,1.5117,1.5212,1.5219,1.5223,1.5091,1.5281,1.528,1.528,1.5045,1.5037,1.5031,0,0,0,0,0,0,1.478,1.4785,1.4853,1.484,1.4853,1.4973,1.4974,1.4998,1.5009,1.5118,1.5141,1.509,1.5217,1.5224,1.5177,1.5098,1.528,1.5279,1.5052,1.5042,1.5034,1.4824,0,0,0,0,0,0,1.4777,1.4783,1.474,1.4838,1.4853,1.4806,1.497,1.4997,1.5008,1.5028,1.5112,1.5132,1.5222,1.5177,1.5176,1.5101,1.5279,1.5059,1.5048,1.5037,1.4838,1.4809,1.4783,0,0,0,0,0,1.4774,1.4673,1.4737,1.4742,1.4802,1.4802,1.481,1.4918,1.5001,1.4958,1.5028,1.5129,1.5106,1.517,1.5172,1.5094,1.5065,1.5051,1.5038,1.4851,1.4815,1.4784,0,0,0,0,0,0,1.456,1.4688,1.476,1.4688,1.4733,1.4837,1.4787,1.4876,1.4896,1.4914,1.5044,1.5062,1.4998,1.5041,1.511,1.4984,1.5101,1.5087,1.4959,1.4925,1.4898,1.489,1.5278,0,0,0,0,0,1.4505,1.4496,1.4608,1.4534,1.4553,1.4665,1.4669,1.4749,1.4799,1.4818,1.4885,1.4928,1.4931,1.493,1.4938,1.4845,1.4867,1.4792,1.4764,1.4741,1.4728,1.4684,1.4653,1.4986,1.4986,1.4986,0,0,1.439,1.4459,1.4445,1.4493,1.4537,1.4524,1.4679,1.4658,1.465,1.4814,1.4776,1.4825,1.4882,1.4811,1.4784,1.4846,1.4641,1.4724,1.4704,1.4705,1.4667,1.4635,1.4607,1.4977,1.4978,1.498,0,0,1.4176,1.4226,1.4172,1.4213,1.4279,1.4354,1.434,1.4431,1.4472,1.4436,1.456,1.4549,1.4551,1.4587,1.4605,1.4404,1.4498,1.4402,1.4259,1.4215,1.4188,1.4166,1.4097,1.407,1.4388,1.4388,1.4387,0,1.4025,1.4013,1.4132,1.4105,1.4122,1.4272,1.4218,1.4251,1.4313,1.4321,1.4389,1.4397,1.4444,1.4386,1.4337,1.4346,1.4335,1.4395,1.4183,1.4162,1.4142,1.4078,1.4051,1.4376,1.4377,1.4379,1.438,0,1.3825,1.3814,1.3762,1.3823,1.3834,1.3792,1.3903,1.3899,1.3977,1.4044,1.4006,1.4069,1.4094,1.4085,1.4159,1.4037,1.4074,1.4159,1.4281,1.4097,1.4039,1.4014,1.4359,1.4363,1.4367,1.437,0,0,1.3482,1.361,1.3589,1.362,1.3703,1.3696,1.366,1.3687,1.3682,1.3719,1.3694,1.3691,1.3773,1.3793,1.3873,1.3833,1.3673,1.3925,1.3929,1.3879,1.3544,1.3481,1.345,1.3734,1.373,1.3726,1.354,0,1.3288,1.3239,1.3344,1.3268,1.326,1.3402,1.3371,1.3417,1.3479,1.3479,1.3546,1.3544,1.365,1.3664,1.363,1.3699,1.3608,1.3713,1.3711,1.371,1.3697,1.342,1.3353,1.3175,1.3518,1.3514,1.3511,0,1.3055,1.3085,1.3009,1.3098,1.3099,1.3069,1.3104,1.3102,1.3157,1.3204,1.3227,1.3321,1.3291,1.3405,1.3365,1.3435,1.344,1.3473,1.3469,1.3476,1.3602,1.3422,1.312,1.3095,1.3476,1.3479,1.3481,0,1.2817,1.2837,1.2796,1.2816,1.2918,1.2895,1.2935,1.2996,1.3006,1.3034,1.3042,1.3064,1.3077,1.3091,1.3189,1.3262,1.3137,1.3259,1.3177,1.3174,1.3147,1.3148,1.2845,1.3142,1.3143,1.3143,1.3144,0,1.2592,1.254,1.2691,1.2665,1.2611,1.2731,1.2674,1.2728,1.2781,1.2768,1.2889,1.2873,1.3,1.2997,1.3072,1.3029,1.3033,1.307,1.3092,1.3062,1.3058,1.307,1.3086,1.3136,1.3138,1.3139,1.3141,0,1.2319,1.2417,1.2381,1.2481,1.2504,1.2461,1.2545,1.2525,1.2593,1.2574,1.2577,1.2683,1.2686,1.2784,1.2806,1.2857,1.2784,1.2825,1.2767,1.2782,1.2695,1.2703,1.2392,1.2359,1.2672,1.2669,1.2667,0,1.2171,1.2135,1.2231,1.2233,1.2269,1.2268,1.228,1.2395,1.2402,1.2461,1.2433,1.2447,1.2465,1.2462,1.2541,1.2558,1.2604,1.2494,1.2608,1.258,1.2607,1.261,1.2608,1.2471,1.2467,1.2464,1.2461,0,1.1899,1.1949,1.1963,1.1993,1.2005,1.2033,1.2069,1.2062,1.2188,1.2189,1.2196,1.2209,1.2234,1.2246,1.2278,1.2318,1.241,1.2424,1.2407,1.2378,1.2348,1.2367,1.2705,1.2432,1.2434,1.2437,1.2438,1.2439,1.1688,1.1664,1.1729,1.174,1.1779,1.181,1.1797,1.1864,1.1872,1.1904,1.197,1.1966,1.2021,1.2074,1.2106,1.2103,1.2159,1.2133,1.2127,1.212,1.2105,1.2344,1.2109,1.211,1.211,1.2111,1.2112,0,1.1426,1.1475,1.1484,1.1532,1.154,1.1627,1.1671,1.1672,1.1668,1.1713,1.1728,1.1735,1.1748,1.1826,1.1847,1.183,1.1873,1.1832,1.1837,1.1845,1.2052,1.2067,1.1797,1.1797,1.1797,1.1797,1.1797,1.1797,1.1292,1.1257,1.1314,1.13,1.1348,1.1349,1.1366,1.1395,1.1432,1.1436,1.1448,1.1499,1.1557,1.1583,1.1598,1.1621,1.1624,1.157,1.1606,1.1799,1.183,1.1859,1.1874,1.1568,1.1568,1.1401,1.1399,1.1398]},{"header":{"parameterUnit":"m.s-1","parameterCategory":1,"la1":30.2991,"la2":30.254,"lo1":-89.0895,"lo2":-89.0444,"dy":0.0017,"dx":0.0017,"nx":28,"ny":28,"refTime":"2023-07-21T09:00:00:Z","depth":0,"parameterNumber":3,"parameterNumberName":"V-component_of_WINDS"},"data":[0,0,0,0,0,0,0,0,0,0,0,0,0,0,0,0,0,0,0,0,0,0,0,0,0,0,0,0,0,0,0,0,0,0,0,0,0,0,0,0,0,0,0,0,0,0,0,0,0,0,0,0,0,0,0,0,0,0,-6.1857,-6.1853,0,-6.1543,-6.154,-6.1536,-6.1097,-6.1089,-6.1082,-6.1075,-6.076,-6.0759,-6.0757,0,0,0,0,0,0,0,0,0,0,0,0,0,-6.2079,-6.2077,-6.1857,-6.1853,-6.1849,-6.1544,-6.154,-6.1535,-6.1098,-6.1089,-6.108,-6.1071,-6.076,-6.0759,-6.0757,0,0,0,0,0,0,0,0,0,0,0,0,0,-6.1897,-6.2077,-6.1858,-6.1594,-6.1567,-6.1545,-6.1539,-6.1534,-6.11,-6.1089,-6.1077,-6.1067,-6.0761,-6.0759,-6.0757,-6.0969,0,0,-6.075,-6.0749,0,0,0,0,0,0,0,0,-6.1907,-6.1889,-6.1637,-6.1612,-6.1582,-6.1347,-6.1502,-6.1345,-6.1103,-6.1278,-6.1075,-6.1061,-6.0965,-6.0945,-6.0911,-6.0954,-6.0941,-6.075,-6.0749,-6.0748,-6.0747,0,0,0,0,0,0,0,-6.1921,-6.19,-6.1733,-6.1634,-6.16,-6.1492,-6.1454,-6.147,-6.1189,-6.1262,-6.1229,-6.1198,-6.0948,-6.0915,-6.0901,-6.0936,-6.075,-6.0748,-6.0747,-6.0746,-6.1128,-6.1139,0,0,0,0,0,0,-6.1972,-6.1913,-6.1743,-6.1723,-6.172,-6.1497,-6.1454,-6.1434,-6.1187,-6.1138,-6.1207,-6.1178,-6.0924,-6.0904,-6.0888,-6.1111,-6.0748,-6.0746,-6.0745,-6.1117,-6.113,-6.1143,0,0,0,0,0,0,-6.1978,-6.1961,-6.1755,-6.1809,-6.1775,-6.1505,-6.1487,-6.1434,-6.1399,-6.1146,-6.1094,-6.1225,-6.0914,-6.0891,-6.0949,-6.1094,-6.0745,-6.0743,-6.1103,-6.1121,-6.1137,-6.1566,0,0,0,0,0,0,-6.1987,-6.1966,-6.2043,-6.1814,-6.1774,-6.1823,-6.1496,-6.1436,-6.1397,-6.1355,-6.1148,-6.1103,-6.0903,-6.0955,-6.0948,-6.1085,-6.0742,-6.1089,-6.1111,-6.1131,-6.1538,-6.1596,-6.1646,0,0,0,0,0,-6.1996,-6.218,-6.2049,-6.2031,-6.1864,-6.1832,-6.1809,-6.1573,-6.1411,-6.1485,-6.1321,-6.111,-6.1083,-6.0965,-6.0953,-6.1092,-6.1078,-6.1105,-6.113,-6.1514,-6.1585,-6.1645,0,0,0,0,0,0,-6.2436,-6.2145,-6.1997,-6.2112,-6.2,-6.1758,-6.1845,-6.1657,-6.159,-6.1554,-6.1267,-6.1224,-6.1317,-6.1211,-6.1086,-6.128,-6.1048,-6.1073,-6.1344,-6.1409,-6.1463,-6.1482,-6.074,0,0,0,0,0,-6.2546,-6.2543,-6.229,-6.2416,-6.2367,-6.2118,-6.2095,-6.1922,-6.1795,-6.1746,-6.1586,-6.1472,-6.1435,-6.1418,-6.1372,-6.1524,-6.1467,-6.1613,-6.1667,-6.1713,-6.1735,-6.1797,-6.1856,-6.1227,-6.1227,-6.1226,0,0,-6.2774,-6.2615,-6.263,-6.25,-6.2392,-6.2394,-6.208,-6.2097,-6.2094,-6.1749,-6.1789,-6.1671,-6.1524,-6.1628,-6.1666,-6.1542,-6.1897,-6.1746,-6.1784,-6.178,-6.183,-6.189,-6.1943,-6.1244,-6.1241,-6.1238,0,0,-6.3186,-6.307,-6.3156,-6.3055,-6.2895,-6.2727,-6.275,-6.2535,-6.244,-6.2479,-6.2216,-6.2212,-6.2159,-6.2061,-6.2005,-6.2381,-6.218,-6.2375,-6.2653,-6.2719,-6.2768,-6.281,-6.2935,-6.2984,-6.24,-6.2401,-6.2401,0,-6.3489,-6.3479,-6.3226,-6.3256,-6.3204,-6.289,-6.2974,-6.289,-6.2726,-6.2696,-6.2562,-6.2482,-6.2363,-6.2434,-6.2525,-6.2494,-6.2506,-6.2393,-6.2781,-6.2821,-6.2857,-6.2972,-6.3021,-6.2424,-6.2422,-6.2419,-6.2417,0,-6.3855,-6.3853,-6.3944,-6.3786,-6.3746,-6.3806,-6.356,-6.355,-6.3383,-6.323,-6.327,-6.3115,-6.3027,-6.3034,-6.2874,-6.3082,-6.3009,-6.2834,-6.2592,-6.2945,-6.3047,-6.3091,-6.2459,-6.245,-6.2443,-6.2437,0,0,-6.453,-6.4232,-6.4268,-6.419,-6.3991,-6.3984,-6.403,-6.3941,-6.3934,-6.3833,-6.3858,-6.3819,-6.3652,-6.359,-6.3416,-6.3475,-6.377,-6.3288,-6.328,-6.3374,-6.3979,-6.4106,-6.4162,-6.364,-6.3647,-6.3654,-6.3988,0,-6.4896,-6.495,-6.4723,-6.4836,-6.4827,-6.4529,-6.4566,-6.4449,-6.4308,-6.428,-6.4125,-6.4097,-6.3885,-6.3843,-6.3889,-6.3725,-6.3886,-6.3699,-6.3655,-6.3656,-6.369,-6.4217,-6.4351,-6.4674,-6.4028,-6.4035,-6.404,0,-6.5328,-6.5244,-6.5357,-6.5145,-6.5133,-6.5171,-6.5068,-6.5048,-6.4907,-6.4799,-6.4729,-6.4527,-6.4552,-6.433,-6.4358,-6.4236,-6.4206,-6.4123,-6.413,-6.4108,-6.3863,-6.42,-6.4773,-6.4818,-6.4103,-6.4098,-6.4093,0,-6.5797,-6.5714,-6.5766,-6.5711,-6.547,-6.5501,-6.5403,-6.5251,-6.5211,-6.5124,-6.5093,-6.5014,-6.4967,-6.4909,-6.4688,-6.4549,-6.474,-6.4501,-6.4646,-6.4652,-6.4692,-6.4691,-6.5258,-6.4693,-6.4692,-6.4691,-6.469,0,-6.6223,-6.63,-6.5972,-6.6005,-6.6081,-6.5822,-6.5905,-6.5777,-6.5645,-6.5644,-6.5387,-6.5393,-6.5107,-6.5081,-6.4911,-6.4955,-6.4939,-6.4849,-6.4801,-6.4866,-6.4876,-6.4835,-6.4803,-6.4703,-6.4701,-6.4698,-6.4696,0,-6.6754,-6.6539,-6.6575,-6.6344,-6.6287,-6.6354,-6.6154,-6.6173,-6.6017,-6.602,-6.6006,-6.5761,-6.5716,-6.5493,-6.5399,-6.5283,-6.5383,-6.5295,-6.5429,-6.5396,-6.5549,-6.5534,-6.6101,-6.6158,-6.5569,-6.5575,-6.558,0,-6.7035,-6.7086,-6.6859,-6.684,-6.6751,-6.6726,-6.6682,-6.643,-6.6395,-6.6237,-6.6274,-6.6209,-6.6141,-6.6084,-6.5896,-6.582,-6.5721,-6.5926,-6.5708,-6.5769,-6.5711,-6.5706,-6.5706,-6.597,-6.5977,-6.5984,-6.5989,0,-6.7552,-6.7442,-6.7389,-6.7298,-6.7253,-6.7171,-6.7072,-6.7072,-6.6791,-6.6766,-6.6715,-6.6664,-6.6564,-6.6499,-6.6391,-6.6287,-6.609,-6.606,-6.6087,-6.6149,-6.622,-6.6172,-6.5544,-6.6046,-6.604,-6.6036,-6.6033,-6.6031,-6.7957,-6.7986,-6.7829,-6.7777,-6.7677,-6.7591,-6.7594,-6.7438,-6.7391,-6.7287,-6.7144,-6.7111,-6.6965,-6.6799,-6.6711,-6.668,-6.6569,-6.6612,-6.662,-6.6632,-6.6661,-6.6235,-6.6662,-6.666,-6.6658,-6.6656,-6.6655,0,-6.8451,-6.8336,-6.8291,-6.8159,-6.8118,-6.7939,-6.782,-6.7796,-6.777,-6.7651,-6.7589,-6.7529,-6.7465,-6.7273,-6.7188,-6.72,-6.7107,-6.7186,-6.7176,-6.7154,-6.6771,-6.675,-6.7262,-6.7262,-6.7261,-6.7261,-6.7261,-6.7261,-6.8702,-6.8738,-6.8611,-6.8595,-6.8478,-6.8442,-6.8388,-6.8306,-6.8207,-6.8151,-6.8095,-6.7971,-6.782,-6.7723,-6.7654,-6.7599,-6.7575,-6.7682,-6.7597,-6.7241,-6.7182,-6.7126,-6.7104,-6.7682,-6.7683,-6.7979,-6.7982,-6.7984]}]]